Regional Weather Roundup
Issued by NWS Midland/Odessa, TX

Skip options and go directly to product.
Home | Oldest Version | Previous Version | Current Version | All | Text Only | Save Text | Print | Product List | Glossary On

Skip product version selection by date and time.   
586
ASUS44 KMAF 101801
RWRMAF
MIDLAND AREA WEATHER ROUNDUP
NATIONAL WEATHER SERVICE MIDLAND TX
1200 PM CST WED FEB 10 2016

...IN SOUTHWEST TEXAS AND SOUTHEAST NEW MEXICO...

CITY           SKY/WX    TMP DP  RH WIND       PRES   REMARKS
ALPINE         SUNNY     67  16  14 SW16      30.44F
ANDREWS        FAIR      67  21  17 SW15      30.33F
ARTESIA        SUNNY     54  27  35 CALM      30.34F
BIG SPRING     SUNNY     58  27  29 S10       30.35F
CARLSBAD       SUNNY     57  26  30 SE3       30.33F
DRYDEN           N/A     69  22  16 SW10      30.34F
FORT STOCKTON  SUNNY     64  26  23 CALM      30.36F
GUAD PASS      SUNNY     54  19  25 SW18      30.41F
HOBBS          SUNNY     66  19  16 SW15      30.35F
MARFA          SUNNY     65  15  14 W9        30.41F
MIDLAND AIRPK  SUNNY     65  26  23 SW9       30.34F
MIDLAND INTL   SUNNY     66  26  22 W10       30.33F
ODESSA         SUNNY     68  23  18 SW10      30.34F
PECOS          SUNNY     60  27  28 CALM      30.35F
PRESIDIO       FAIR      60  19  20 CALM      30.39F
SEMINOLE       SUNNY     66  23  19 W14       30.34F
SNYDER           N/A     63  26  24 SW14      30.31F
WINK           SUNNY     65  26  23 SW6       30.33F
$$
...OTHER STATIONS IN TEXAS...

CITY           SKY/WX    TMP DP  RH WIND       PRES   REMARKS
ABILENE        SUNNY     67  31  26 SW10      30.29F
AMARILLO       SUNNY     69  24  18 W17       30.20F
AUSTIN         SUNNY     64  31  28 S9        30.36F
BROWNSVILLE    SUNNY     75  35  23 S14       30.38F
CORPUS CHRISTI SUNNY     72  34  24 VRB3      30.38F
DALLAS FTW     SUNNY     61  28  28 S17       30.27F
DEL RIO        SUNNY     66  30  26 SE3       30.35F
EL PASO        SUNNY     58  19  22 N7        30.40F
HOUSTON INT    SUNNY     63  27  25 SE7       30.38F
LUBBOCK        SUNNY     68  22  17 W20       30.27F
SAN ANGELO     SUNNY     72  24  16 SW14      30.32F
SAN ANTONIO    MOSUNNY   62  31  31 CALM      30.37F
WACO           SUNNY     62  31  31 SW15      30.33F
WICHITA FALLS  NOT AVBL
$$
...OTHER LOCATIONS IN NEW MEXICO...

CITY           SKY/WX    TMP DP  RH WIND       PRES   REMARKS
ALAMAGORDO     SUNNY     57  19  23 CALM      30.41F
ALBUQUERQUE    SUNNY     48  18  30 NW7       30.45S
CANNON AFB     SUNNY     63  19  18 W17       30.27F
CLOVIS         SUNNY     64  23  20 SW17G23   30.28F
HOLLOMAN AFB   SUNNY     56  20  24 VRB1      30.39F
ROSWELL        SUNNY     56  21  25 CALM      30.33F
RUIDOSO          N/A     57  16  19 NW9G17    30.43F
SANTA FE       SUNNY     49  17  28 N13       30.42F
TRUTH OR CONSE SUNNY     54  19  25 CALM      30.41F
TUCUMCARI        N/A     63  20  19 W10       30.24F
$$

USA.gov is the U.S. government's official web portal to all federal, state and local government web resources and services.